WMT411 LATI-LIPR

Flight info

Callsign WMT411
Flight time 1h 12m
Altitude 38000
Route DIRES DCT PAPIZ DCT VIE DCT ANC
Aircraft A321/M-SDE1E2E3FGIJ1J4RWXY/LB1

Departure

Time 2026-05-05 18:48
Airport Tirana International Airport Mother Teresa (LATI)

Arrival

Time 2026-05-05 20:00
Airport Federico Fellini International Airport (LIPR)
Time Latitude Longitude Altitude Speed Heading
2026-05-05 18:11 41.41988 19.71514 119 ft 0 kts 264°
2026-05-05 18:34 41.41988 19.71515 123 ft 1 kts 264°
2026-05-05 18:34 41.41990 19.71540 119 ft 4 kts 258°
2026-05-05 18:35 41.42001 19.71567 120 ft 4 kts 201°
2026-05-05 18:35 41.42024 19.71571 120 ft 2 kts 174°
2026-05-05 18:35 41.42030 19.71570 120 ft 0 kts 174°
2026-05-05 18:40 41.42028 19.71570 122 ft 2 kts 175°
2026-05-05 18:40 41.41984 19.71575 120 ft 11 kts 175°
2026-05-05 18:40 41.41880 19.71588 122 ft 19 kts 175°
2026-05-05 18:40 41.41757 19.71606 121 ft 17 kts 173°
2026-05-05 18:41 41.41651 19.71621 126 ft 14 kts 174°
2026-05-05 18:41 41.41556 19.71633 127 ft 13 kts 174°
2026-05-05 18:41 41.41461 19.71646 124 ft 14 kts 174°
2026-05-05 18:41 41.41358 19.71661 127 ft 16 kts 174°
2026-05-05 18:42 41.41246 19.71676 125 ft 17 kts 174°
2026-05-05 18:42 41.41125 19.71693 130 ft 18 kts 174°
2026-05-05 18:42 41.40996 19.71711 131 ft 19 kts 174°
2026-05-05 18:42 41.40859 19.71735 131 ft 20 kts 169°
2026-05-05 18:43 41.40716 19.71765 132 ft 19 kts 174°
2026-05-05 18:43 41.40634 19.71838 132 ft 14 kts 94°
2026-05-05 18:43 41.40658 19.71976 132 ft 16 kts 77°
2026-05-05 18:43 41.40667 19.72027 132 ft 0 kts 77°
2026-05-05 18:46 41.40667 19.72029 132 ft 2 kts 77°
2026-05-05 18:47 41.40695 19.72112 134 ft 18 kts 45°
2026-05-05 18:47 41.40910 19.72138 133 ft 59 kts 357°
2026-05-05 18:47 41.41591 19.72043 123 ft 134 kts 354°
2026-05-05 18:47 41.42632 19.71904 582 ft 150 kts 354°
2026-05-05 18:48 41.43677 19.71764 1337 ft 152 kts 353°
2026-05-05 18:48 41.44785 19.71614 1887 ft 169 kts 352°
2026-05-05 18:48 41.46026 19.71420 2224 ft 190 kts 346°
2026-05-05 18:48 41.47209 19.70510 2521 ft 209 kts 308°
2026-05-05 18:49 41.47710 19.68639 2764 ft 230 kts 265°
2026-05-05 18:49 41.47123 19.66596 3169 ft 250 kts 232°
2026-05-05 18:49 41.45939 19.64838 3889 ft 259 kts 224°
2026-05-05 18:49 41.44599 19.63208 4787 ft 263 kts 221°
2026-05-05 18:50 41.43211 19.61606 5673 ft 266 kts 221°
2026-05-05 18:50 41.41806 19.59977 6558 ft 270 kts 221°
2026-05-05 18:50 41.40417 19.58328 7384 ft 272 kts 222°
2026-05-05 18:50 41.39009 19.56623 8250 ft 275 kts 223°
2026-05-05 18:51 41.37599 19.54890 9132 ft 277 kts 223°
2026-05-05 18:51 41.36186 19.53139 10007 ft 279 kts 224°
2026-05-05 18:51 41.34744 19.51344 10560 ft 293 kts 224°
2026-05-05 18:51 41.33199 19.49417 10809 ft 316 kts 224°
2026-05-05 18:52 41.31561 19.47378 11318 ft 327 kts 224°
2026-05-05 18:52 41.29884 19.45299 12048 ft 332 kts 224°
2026-05-05 18:52 41.28184 19.43194 12795 ft 336 kts 225°
2026-05-05 18:52 41.26464 19.41063 13530 ft 340 kts 225°
2026-05-05 18:53 41.24725 19.38904 14204 ft 345 kts 225°
2026-05-05 18:53 41.22961 19.36715 14836 ft 349 kts 226°
2026-05-05 18:53 41.21177 19.34506 15502 ft 352 kts 226°
2026-05-05 18:53 41.19372 19.32272 16173 ft 356 kts 226°
2026-05-05 18:54 41.17547 19.30017 16850 ft 360 kts 226°
2026-05-05 18:54 41.15705 19.27742 17511 ft 364 kts 226°
2026-05-05 18:54 41.13842 19.25442 18167 ft 368 kts 226°
2026-05-05 18:54 41.11963 19.23124 18750 ft 371 kts 226°
2026-05-05 18:55 41.10061 19.20780 19325 ft 375 kts 226°
2026-05-05 18:55 41.08143 19.18422 19911 ft 378 kts 226°
2026-05-05 18:55 41.06209 19.16042 20504 ft 381 kts 226°
2026-05-05 18:55 41.04260 19.13648 21082 ft 384 kts 226°
2026-05-05 18:56 41.02294 19.11235 21677 ft 387 kts 227°
2026-05-05 18:56 41.00343 19.08836 22301 ft 388 kts 227°
2026-05-05 18:56 40.98334 19.06369 22996 ft 389 kts 228°
2026-05-05 18:56 40.96374 19.03969 23593 ft 390 kts 228°
2026-05-05 18:57 40.94356 19.01481 24090 ft 391 kts 231°
2026-05-05 18:57 40.92736 18.98707 24538 ft 384 kts 245°
2026-05-05 18:57 40.91719 18.95436 24987 ft 379 kts 259°
2026-05-05 18:57 40.91403 18.92044 25429 ft 376 kts 273°
2026-05-05 18:58 40.91762 18.88639 25870 ft 376 kts 286°
2026-05-05 18:58 40.92745 18.85433 26307 ft 378 kts 295°
2026-05-05 18:58 40.93911 18.82298 26748 ft 380 kts 295°
2026-05-05 18:58 40.95080 18.79149 27184 ft 382 kts 295°
2026-05-05 18:59 40.96251 18.75979 27579 ft 385 kts 294°
2026-05-05 18:59 40.97427 18.72775 27966 ft 389 kts 294°
2026-05-05 18:59 40.98611 18.69543 28365 ft 391 kts 294°
2026-05-05 18:59 40.99799 18.66298 28773 ft 394 kts 294°
2026-05-05 19:00 41.00996 18.63026 29175 ft 396 kts 294°
2026-05-05 19:00 41.02201 18.59734 29564 ft 399 kts 294°
2026-05-05 19:00 41.03413 18.56421 29949 ft 401 kts 294°
2026-05-05 19:00 41.04632 18.53084 30293 ft 403 kts 295°
2026-05-05 19:01 41.05857 18.49731 30627 ft 405 kts 295°
2026-05-05 19:01 41.07083 18.46365 30967 ft 407 kts 295°
2026-05-05 19:01 41.08313 18.42982 31323 ft 408 kts 295°
2026-05-05 19:01 41.09547 18.39583 31656 ft 410 kts 295°
2026-05-05 19:02 41.10781 18.36176 32101 ft 409 kts 295°
2026-05-05 19:02 41.12008 18.32784 32603 ft 406 kts 296°
2026-05-05 19:02 41.13226 18.29415 33096 ft 404 kts 296°
2026-05-05 19:02 41.14439 18.26058 33609 ft 402 kts 296°
2026-05-05 19:03 41.15644 18.22722 34070 ft 401 kts 296°
2026-05-05 19:03 41.16844 18.19399 34476 ft 399 kts 296°
2026-05-05 19:03 41.18042 18.16081 34872 ft 398 kts 296°
2026-05-05 19:03 41.19234 18.12774 35251 ft 396 kts 296°
2026-05-05 19:04 41.20419 18.09475 35641 ft 395 kts 296°
2026-05-05 19:04 41.21600 18.06186 36028 ft 394 kts 296°
2026-05-05 19:04 41.22778 18.02901 36411 ft 393 kts 296°
2026-05-05 19:04 41.23950 17.99628 36777 ft 392 kts 296°
2026-05-05 19:05 41.25118 17.96362 37132 ft 391 kts 296°
2026-05-05 19:05 41.26283 17.93101 37474 ft 390 kts 296°
2026-05-05 19:05 41.27443 17.89844 37802 ft 389 kts 296°
2026-05-05 19:05 41.28601 17.86589 38020 ft 389 kts 296°
2026-05-05 19:06 41.30913 17.80103 38056 ft 387 kts 296°
2026-05-05 19:06 41.33234 17.73581 38054 ft 395 kts 295°
2026-05-05 19:07 41.35200 17.68016 38056 ft 403 kts 295°
2026-05-05 19:07 41.37985 17.60096 38050 ft 405 kts 295°
2026-05-05 19:08 41.40375 17.53307 38051 ft 405 kts 295°
2026-05-05 19:08 41.42761 17.46558 38050 ft 405 kts 295°
2026-05-05 19:09 41.45160 17.39761 38051 ft 406 kts 295°
2026-05-05 19:09 41.47549 17.32935 38054 ft 407 kts 295°
2026-05-05 19:10 41.49932 17.26087 38056 ft 407 kts 295°
2026-05-05 19:10 41.52316 17.19220 38061 ft 408 kts 295°
2026-05-05 19:11 41.54707 17.12346 38065 ft 408 kts 295°
2026-05-05 19:11 41.57101 17.05467 38067 ft 409 kts 295°
2026-05-05 19:12 41.59489 16.98569 38063 ft 409 kts 295°
2026-05-05 19:12 41.61868 16.91654 38067 ft 410 kts 295°
2026-05-05 19:13 41.64237 16.84730 38063 ft 410 kts 295°
2026-05-05 19:13 41.66609 16.77805 38068 ft 410 kts 295°
2026-05-05 19:14 41.68983 16.70880 38065 ft 410 kts 295°
2026-05-05 19:14 41.71365 16.63946 38057 ft 410 kts 294°
2026-05-05 19:15 41.73337 16.58175 38059 ft 410 kts 294°
2026-05-05 19:15 41.76080 16.50082 38061 ft 411 kts 294°
2026-05-05 19:16 41.78443 16.43110 38064 ft 411 kts 294°
2026-05-05 19:16 41.80421 16.37264 38062 ft 411 kts 294°
2026-05-05 19:17 41.82783 16.30272 38060 ft 412 kts 294°
2026-05-05 19:17 41.85137 16.23274 38063 ft 412 kts 294°
2026-05-05 19:18 41.87483 16.16266 38065 ft 412 kts 294°
2026-05-05 19:18 41.89827 16.09257 38063 ft 412 kts 294°
2026-05-05 19:19 41.92777 16.02694 38056 ft 414 kts 310°
2026-05-05 19:19 41.96665 15.96974 38054 ft 415 kts 310°
2026-05-05 19:20 42.00553 15.91233 38075 ft 415 kts 310°
2026-05-05 19:20 42.04434 15.85472 38072 ft 416 kts 310°
2026-05-05 19:21 42.08290 15.79733 38072 ft 416 kts 310°
2026-05-05 19:21 42.12181 15.73949 38064 ft 417 kts 310°
2026-05-05 19:22 42.16066 15.68155 38066 ft 417 kts 309°
2026-05-05 19:22 42.19954 15.62357 38057 ft 417 kts 309°
2026-05-05 19:23 42.23836 15.56536 38049 ft 417 kts 309°
2026-05-05 19:23 42.27715 15.50712 38047 ft 417 kts 309°
2026-05-05 19:24 42.31433 15.45128 38042 ft 417 kts 309°
2026-05-05 19:24 42.35308 15.39297 38042 ft 417 kts 309°
2026-05-05 19:25 42.39182 15.33450 38042 ft 417 kts 309°
2026-05-05 19:25 42.43051 15.27594 38058 ft 417 kts 308°
2026-05-05 19:26 42.46921 15.21732 38050 ft 418 kts 309°
2026-05-05 19:26 42.50791 15.15852 38045 ft 418 kts 308°
2026-05-05 19:27 42.54653 15.09964 38046 ft 418 kts 308°
2026-05-05 19:27 42.58522 15.04068 38043 ft 418 kts 309°
2026-05-05 19:28 42.62396 14.98164 38043 ft 419 kts 308°
2026-05-05 19:28 42.66261 14.92249 38068 ft 419 kts 308°
2026-05-05 19:29 42.70112 14.86336 38038 ft 417 kts 308°
2026-05-05 19:29 42.73960 14.80425 38039 ft 418 kts 308°
2026-05-05 19:30 42.77812 14.74499 38041 ft 418 kts 308°
2026-05-05 19:30 42.81656 14.68563 38044 ft 418 kts 308°
2026-05-05 19:31 42.85497 14.62614 38046 ft 418 kts 308°
2026-05-05 19:31 42.89340 14.56660 38046 ft 418 kts 308°
2026-05-05 19:32 42.93179 14.50699 38056 ft 418 kts 308°
2026-05-05 19:32 42.97008 14.44740 38024 ft 414 kts 308°
2026-05-05 19:33 42.98895 14.41810 37744 ft 406 kts 308°
2026-05-05 19:33 43.00748 14.38932 37465 ft 401 kts 307°
2026-05-05 19:33 43.02580 14.36071 37198 ft 399 kts 307°
2026-05-05 19:33 43.04401 14.33219 36930 ft 398 kts 307°
2026-05-05 19:34 43.06219 14.30366 36666 ft 398 kts 307°
2026-05-05 19:34 43.08041 14.27506 36404 ft 399 kts 307°
2026-05-05 19:34 43.09864 14.24645 36150 ft 399 kts 307°
2026-05-05 19:35 43.13516 14.18907 35640 ft 401 kts 306°
2026-05-05 19:35 43.15353 14.16025 35413 ft 402 kts 306°
2026-05-05 19:35 43.17191 14.13137 35170 ft 402 kts 306°
2026-05-05 19:35 43.19025 14.10253 34917 ft 401 kts 306°
2026-05-05 19:36 43.20849 14.07381 34659 ft 397 kts 306°
2026-05-05 19:36 43.22653 14.04540 34239 ft 393 kts 306°
2026-05-05 19:36 43.24437 14.01724 33771 ft 389 kts 306°
2026-05-05 19:36 43.26201 13.98931 33339 ft 385 kts 306°
2026-05-05 19:37 43.27942 13.96173 32898 ft 380 kts 306°
2026-05-05 19:37 43.29662 13.93446 32455 ft 376 kts 306°
2026-05-05 19:37 43.31361 13.90750 32038 ft 371 kts 306°
2026-05-05 19:37 43.33041 13.88080 31613 ft 367 kts 306°
2026-05-05 19:38 43.34682 13.85472 31212 ft 364 kts 306°
2026-05-05 19:38 43.36354 13.82815 30780 ft 361 kts 306°
2026-05-05 19:38 43.37991 13.80212 30358 ft 358 kts 306°
2026-05-05 19:38 43.39613 13.77628 29937 ft 356 kts 306°
2026-05-05 19:39 43.41201 13.75090 29516 ft 353 kts 306°
2026-05-05 19:39 43.42794 13.72541 29121 ft 350 kts 306°
2026-05-05 19:39 43.44373 13.70016 28735 ft 347 kts 306°
2026-05-05 19:39 43.45939 13.67514 28354 ft 343 kts 306°
2026-05-05 19:40 43.47493 13.65036 27981 ft 340 kts 306°
2026-05-05 19:40 43.49039 13.62574 27618 ft 339 kts 306°
2026-05-05 19:40 43.50579 13.60114 27254 ft 339 kts 306°
2026-05-05 19:40 43.52113 13.57655 26897 ft 338 kts 306°
2026-05-05 19:41 43.53639 13.55198 26548 ft 337 kts 306°
2026-05-05 19:41 43.55163 13.52742 26197 ft 337 kts 307°
2026-05-05 19:41 43.56688 13.50287 25809 ft 336 kts 307°
2026-05-05 19:41 43.58206 13.47834 25435 ft 337 kts 306°
2026-05-05 19:42 43.59600 13.45263 25071 ft 334 kts 301°
2026-05-05 19:42 43.60937 13.42637 24682 ft 334 kts 301°
2026-05-05 19:42 43.62275 13.40019 24292 ft 334 kts 301°
2026-05-05 19:42 43.63611 13.37405 23907 ft 333 kts 301°
2026-05-05 19:43 43.64946 13.34792 23474 ft 333 kts 301°
2026-05-05 19:43 43.66276 13.32186 23035 ft 331 kts 301°
2026-05-05 19:43 43.67596 13.29596 22618 ft 329 kts 301°
2026-05-05 19:43 43.68907 13.27021 22200 ft 327 kts 301°
2026-05-05 19:44 43.70210 13.24460 21791 ft 325 kts 301°
2026-05-05 19:44 43.71507 13.21913 21377 ft 323 kts 301°
2026-05-05 19:44 43.72792 13.19386 20964 ft 321 kts 301°
2026-05-05 19:44 43.74074 13.16861 20554 ft 319 kts 301°
2026-05-05 19:45 43.75347 13.14353 20130 ft 318 kts 301°
2026-05-05 19:45 43.76615 13.11850 19694 ft 317 kts 301°
2026-05-05 19:45 43.77878 13.09354 19280 ft 317 kts 301°
2026-05-05 19:45 43.79138 13.06857 18869 ft 316 kts 301°
2026-05-05 19:46 43.80392 13.04369 18453 ft 315 kts 301°
2026-05-05 19:46 43.81644 13.01883 18008 ft 315 kts 301°
2026-05-05 19:46 43.82891 12.99406 17585 ft 313 kts 301°
2026-05-05 19:46 43.84132 12.96943 17176 ft 310 kts 301°
2026-05-05 19:47 43.85364 12.94497 16769 ft 308 kts 301°
2026-05-05 19:47 43.86601 12.92076 16364 ft 307 kts 305°
2026-05-05 19:47 43.88091 12.89946 15961 ft 310 kts 317°
2026-05-05 19:47 43.89880 12.88264 15558 ft 312 kts 325°
2026-05-05 19:48 43.91738 12.86733 15146 ft 311 kts 325°
2026-05-05 19:48 43.93589 12.85195 14742 ft 310 kts 325°
2026-05-05 19:48 43.95414 12.83671 14338 ft 310 kts 325°
2026-05-05 19:48 43.97256 12.82131 13936 ft 309 kts 325°
2026-05-05 19:49 43.99092 12.80591 13506 ft 308 kts 325°
2026-05-05 19:49 44.00329 12.79550 13226 ft 306 kts 325°
2026-05-05 19:49 44.02733 12.77533 12700 ft 303 kts 325°
2026-05-05 19:49 44.04535 12.76026 12308 ft 301 kts 324°
2026-05-05 19:50 44.06325 12.74526 11919 ft 300 kts 325°
2026-05-05 19:50 44.08091 12.73012 11538 ft 296 kts 321°
2026-05-05 19:50 44.09622 12.71147 11163 ft 290 kts 308°
2026-05-05 19:50 44.10869 12.68975 10795 ft 286 kts 304°
2026-05-05 19:51 44.12084 12.66789 10424 ft 285 kts 304°
2026-05-05 19:51 44.13296 12.64612 10108 ft 282 kts 304°
2026-05-05 19:51 44.14494 12.62461 10021 ft 283 kts 304°
2026-05-05 19:51 44.15706 12.60281 9629 ft 289 kts 305°
2026-05-05 19:52 44.16945 12.58049 9134 ft 290 kts 305°
2026-05-05 19:52 44.18095 12.55976 8407 ft 296 kts 305°
2026-05-05 19:52 44.19317 12.53778 8082 ft 279 kts 305°
2026-05-05 19:52 44.20481 12.51683 7955 ft 268 kts 305°
2026-05-05 19:53 44.21598 12.49673 7823 ft 258 kts 305°
2026-05-05 19:53 44.22702 12.47679 7373 ft 262 kts 305°
2026-05-05 19:53 44.23740 12.45595 6959 ft 261 kts 291°
2026-05-05 19:53 44.23957 12.43146 6569 ft 257 kts 257°
2026-05-05 19:54 44.23098 12.41000 6158 ft 258 kts 224°
2026-05-05 19:54 44.21699 12.39428 5743 ft 259 kts 219°
2026-05-05 19:54 44.20268 12.37912 5338 ft 255 kts 218°
2026-05-05 19:54 44.18803 12.36686 4958 ft 240 kts 198°
2026-05-05 19:55 44.17187 12.36657 4621 ft 234 kts 167°
2026-05-05 19:55 44.15823 12.37875 4262 ft 237 kts 139°
2026-05-05 19:55 44.14649 12.39411 3914 ft 232 kts 143°
2026-05-05 19:55 44.13435 12.40906 3557 ft 230 kts 136°
2026-05-05 19:56 44.12418 12.42609 3248 ft 227 kts 133°
2026-05-05 19:56 44.11456 12.44293 2931 ft 224 kts 132°
2026-05-05 19:56 44.10494 12.46006 2651 ft 220 kts 132°
2026-05-05 19:56 44.09566 12.47665 2359 ft 214 kts 132°
2026-05-05 19:57 44.08693 12.49232 2078 ft 200 kts 132°
2026-05-05 19:57 44.08137 12.50234 1885 ft 186 kts 132°
2026-05-05 19:57 44.07196 12.51936 1580 ft 153 kts 132°
2026-05-05 19:57 44.06566 12.53064 1367 ft 144 kts 132°
2026-05-05 19:58 44.05962 12.54142 1169 ft 140 kts 132°
2026-05-05 19:58 44.05364 12.55207 974 ft 139 kts 131°
2026-05-05 19:58 44.04775 12.56260 787 ft 136 kts 131°
2026-05-05 19:58 44.04197 12.57291 600 ft 134 kts 130°
2026-05-05 19:59 44.03634 12.58314 397 ft 132 kts 130°
2026-05-05 19:59 44.03071 12.59323 216 ft 131 kts 130°
2026-05-05 19:59 44.02512 12.60317 46 ft 126 kts 130°
2026-05-05 19:59 44.02059 12.61121 46 ft 82 kts 128°
2026-05-05 20:00 44.01837 12.61519 48 ft 12 kts 128°
2026-05-05 20:00 44.01832 12.61609 49 ft 9 kts 50°
2026-05-05 20:00 44.01872 12.61650 49 ft 5 kts 38°
2026-05-05 20:00 44.01894 12.61674 46 ft 3 kts 37°
2026-05-05 20:01 44.01908 12.61689 49 ft 4 kts 37°
2026-05-05 20:01 44.01931 12.61710 48 ft 8 kts 25°
2026-05-05 20:01 44.01988 12.61676 49 ft 10 kts 309°
2026-05-05 20:01 44.02035 12.61608 49 ft 9 kts 333°
2026-05-05 20:02 44.02087 12.61627 49 ft 7 kts 31°
2026-05-05 20:02 44.02118 12.61661 49 ft 4 kts 38°
2026-05-05 20:02 44.02134 12.61678 49 ft 2 kts 39°
2026-05-05 20:02 44.02144 12.61689 49 ft 1 kts 39°
2026-05-05 20:03 44.02148 12.61694 49 ft 0 kts 39°
2026-05-05 20:03 44.02154 12.61700 49 ft 2 kts 39°
2026-05-05 20:03 44.02171 12.61720 47 ft 3 kts 39°
2026-05-05 20:03 44.02177 12.61728 49 ft 0 kts 39°
2026-05-05 20:04 44.02199 12.61753 49 ft 9 kts 38°
2026-05-05 20:04 44.02240 12.61797 49 ft 2 kts 38°
2026-05-05 20:04 44.02242 12.61799 49 ft 0 kts 38°
2026-05-05 20:09 44.02241 12.61799 49 ft 0 kts 38°
2026-05-05 20:12 44.02241 12.61798 49 ft 0 kts 38°